Time,TemperatureF,DewpointF,PressureIn,WindDirection,WindDirectionDegrees,WindSpeedMPH,WindSpeedGustMPH,Humidity,HourlyPrecipIn,Conditions,Clouds,dailyrainin,SoftwareType,DateUTC
2013-03-26 00:04:00,34.0,27.0,29.56,NNW,337,0.0,-999.0,76,-99.99,,,0.00,weatherlink.com 1.10,2013-03-26 04:04:00,
2013-03-26 00:19:00,33.7,27.0,29.57,NNW,337,0.0,-999.0,77,-99.99,,,0.00,weatherlink.com 1.10,2013-03-26 04:19:00,
2013-03-26 00:34:00,33.5,27.0,29.57,NNW,337,0.0,-999.0,78,-99.99,,,0.00,weatherlink.com 1.10,2013-03-26 04:34:00,
2013-03-26 00:49:00,33.3,27.0,29.57,NNW,337,0.0,-999.0,79,-99.99,,,0.00,weatherlink.com 1.10,2013-03-26 04:49:00,
2013-03-26 01:04:00,33.3,28.0,29.56,NNW,337,0.0,-999.0,80,-99.99,,,0.00,weatherlink.com 1.10,2013-03-26 05:04:00,
2013-03-26 01:20:00,33.1,28.0,29.57,NNW,337,0.0,-999.0,80,-99.99,,,0.00,weatherlink.com 1.10,2013-03-26 05:20:00,
2013-03-26 01:35:00,32.8,28.0,29.56,NNW,337,0.0,-999.0,82,-99.99,,,0.00,weatherlink.com 1.10,2013-03-26 05:35:00,
2013-03-26 01:50:00,32.4,28.0,29.56,NNW,337,0.0,-999.0,82,-99.99,,,0.00,weatherlink.com 1.10,2013-03-26 05:50:00,
2013-03-26 02:05:00,32.0,27.0,29.57,NNW,337,0.0,-999.0,82,-99.99,,,0.00,weatherlink.com 1.10,2013-03-26 06:05:00,
2013-03-26 02:20:00,31.9,27.0,29.58,NNW,337,0.0,-999.0,83,-99.99,,,0.00,weatherlink.com 1.10,2013-03-26 06:20:00,
2013-03-26 02:35:00,31.5,27.0,29.57,NNW,337,0.0,-999.0,84,-99.99,,,0.00,weatherlink.com 1.10,2013-03-26 06:35:00,
2013-03-26 02:50:00,31.2,27.0,29.58,NNW,337,0.0,-999.0,83,-99.99,,,0.00,weatherlink.com 1.10,2013-03-26 06:50:00,
2013-03-26 03:05:00,31.1,27.0,29.58,NNW,337,1.0,-999.0,83,-99.99,,,0.00,weatherlink.com 1.10,2013-03-26 07:05:00,
2013-03-26 03:20:00,31.5,27.0,29.58,WNW,298,0.0,-999.0,82,-99.99,,,0.00,weatherlink.com 1.10,2013-03-26 07:20:00,
2013-03-26 03:35:00,32.1,27.0,29.58,NW,325,1.0,-999.0,81,-99.99,,,0.00,weatherlink.com 1.10,2013-03-26 07:35:00,
2013-03-26 03:50:00,32.3,27.0,29.58,WNW,296,0.0,-999.0,80,-99.99,,,0.00,weatherlink.com 1.10,2013-03-26 07:50:00,
2013-03-26 04:05:00,32.4,27.0,29.58,NW,321,3.0,-999.0,81,-99.99,,,0.00,weatherlink.com 1.10,2013-03-26 08:05:00,
2013-03-26 04:20:00,32.5,27.0,29.58,NW,311,2.0,-999.0,81,-99.99,,,0.00,weatherlink.com 1.10,2013-03-26 08:20:00,
2013-03-26 04:35:00,32.5,27.0,29.59,NW,311,0.0,-999.0,81,-99.99,,,0.00,weatherlink.com 1.10,2013-03-26 08:35:00,
2013-03-26 04:50:00,32.4,27.0,29.59,NW,311,0.0,-999.0,81,-99.99,,,0.00,weatherlink.com 1.10,2013-03-26 08:50:00,
2013-03-26 05:05:00,32.4,27.0,29.59,NW,315,1.0,-999.0,81,-99.99,,,0.00,weatherlink.com 1.10,2013-03-26 09:05:00,
2013-03-26 05:20:00,32.3,27.0,29.60,NW,315,2.0,-999.0,81,-99.99,,,0.00,weatherlink.com 1.10,2013-03-26 09:20:00,
2013-03-26 05:35:00,32.3,27.0,29.61,NW,318,1.0,-999.0,81,-99.99,,,0.00,weatherlink.com 1.10,2013-03-26 09:35:00,
2013-03-26 05:50:00,32.2,27.0,29.61,NW,318,0.0,-999.0,81,-99.99,,,0.00,weatherlink.com 1.10,2013-03-26 09:50:00,
2013-03-26 06:05:00,32.3,27.0,29.61,NW,318,0.0,-999.0,81,-99.99,,,0.00,weatherlink.com 1.10,2013-03-26 10:05:00,
2013-03-26 06:20:00,32.3,27.0,29.62,NW,318,1.0,-999.0,80,-99.99,,,0.00,weatherlink.com 1.10,2013-03-26 10:20:00,
2013-03-26 06:35:00,32.4,27.0,29.62,NW,304,0.0,-999.0,80,-99.99,,,0.00,weatherlink.com 1.10,2013-03-26 10:35:00,
2013-03-26 06:50:00,32.4,27.0,29.63,NW,304,1.0,-999.0,80,-99.99,,,0.00,weatherlink.com 1.10,2013-03-26 10:50:00,
2013-03-26 07:05:00,32.4,27.0,29.64,NW,304,0.0,-999.0,80,-99.99,,,0.00,weatherlink.com 1.10,2013-03-26 11:05:00,
2013-03-26 07:20:00,32.3,27.0,29.64,NW,304,0.0,-999.0,81,-99.99,,,0.00,weatherlink.com 1.10,2013-03-26 11:20:00,
2013-03-26 07:35:00,32.2,27.0,29.65,NW,304,1.0,-999.0,81,-99.99,,,0.00,weatherlink.com 1.10,2013-03-26 11:35:00,
2013-03-26 07:50:00,32.2,27.0,29.66,NW,304,1.0,-999.0,81,-99.99,,,0.00,weatherlink.com 1.10,2013-03-26 11:50:00,
2013-03-26 08:05:00,32.4,28.0,29.66,NW,304,0.0,-999.0,82,-99.99,,,0.00,weatherlink.com 1.10,2013-03-26 12:05:00,
2013-03-26 08:20:00,32.9,27.0,29.67,NW,304,0.0,-999.0,80,-99.99,,,0.00,weatherlink.com 1.10,2013-03-26 12:20:00,
2013-03-26 08:35:00,33.5,28.0,29.67,NW,304,0.0,-999.0,79,-99.99,,,0.00,weatherlink.com 1.10,2013-03-26 12:35:00,
2013-03-26 08:50:00,34.0,28.0,29.67,NW,304,1.0,-999.0,78,-99.99,,,0.00,weatherlink.com 1.10,2013-03-26 12:50:00,
2013-03-26 09:05:00,34.2,28.0,29.67,NW,304,2.0,-999.0,77,-99.99,,,0.00,weatherlink.com 1.10,2013-03-26 13:05:00,
2013-03-26 09:20:00,34.4,28.0,29.68,WNW,302,2.0,-999.0,78,-99.99,,,0.00,weatherlink.com 1.10,2013-03-26 13:20:00,
2013-03-26 09:35:00,34.4,28.0,29.67,NNW,337,7.0,-999.0,78,-99.99,,,0.00,weatherlink.com 1.10,2013-03-26 13:35:00,
2013-03-26 09:50:00,34.6,29.0,29.69,NW,315,1.0,-999.0,79,-99.99,,,0.00,weatherlink.com 1.10,2013-03-26 13:50:00,
2013-03-26 10:05:00,35.5,30.0,29.69,North,355,11.0,-999.0,80,-99.99,,,0.00,weatherlink.com 1.10,2013-03-26 14:05:00,
2013-03-26 10:20:00,35.9,30.0,29.69,NW,319,5.0,-999.0,78,-99.99,,,0.00,weatherlink.com 1.10,2013-03-26 14:20:00,
2013-03-26 10:35:00,35.8,30.0,29.70,NW,325,9.0,-999.0,78,-99.99,,,0.00,weatherlink.com 1.10,2013-03-26 14:35:00,
2013-03-26 10:51:00,36.0,29.0,29.70,NW,324,5.0,-999.0,77,-99.99,,,0.00,weatherlink.com 1.10,2013-03-26 14:51:00,
2013-03-26 11:21:00,36.3,29.0,29.71,West,269,2.0,-999.0,75,-99.99,,,0.00,weatherlink.com 1.10,2013-03-26 15:21:00,
2013-03-26 11:36:00,36.9,29.0,29.70,WNW,288,6.0,-999.0,74,-99.99,,,0.00,weatherlink.com 1.10,2013-03-26 15:36:00,
2013-03-26 11:51:00,37.7,31.0,29.71,NNW,342,7.0,-999.0,76,-99.99,,,0.00,weatherlink.com 1.10,2013-03-26 15:51:00,
2013-03-26 12:21:00,37.5,30.0,29.71,NW,317,0.0,-999.0,74,-99.99,,,0.00,weatherlink.com 1.10,2013-03-26 16:21:00,
2013-03-26 12:36:00,38.0,29.0,29.71,WNW,294,3.0,-999.0,70,-99.99,,,0.00,weatherlink.com 1.10,2013-03-26 16:36:00,
2013-03-26 12:51:00,38.7,30.0,29.70,NNW,336,9.0,-999.0,70,-99.99,,,0.00,weatherlink.com 1.10,2013-03-26 16:51:00,
2013-03-26 13:06:00,38.6,29.0,29.71,NNW,329,2.0,-999.0,68,-99.99,,,0.00,weatherlink.com 1.10,2013-03-26 17:06:00,
2013-03-26 13:36:00,40.2,30.0,29.71,North,355,4.0,-999.0,66,-99.99,,,0.00,weatherlink.com 1.10,2013-03-26 17:36:00,
2013-03-26 13:51:00,40.8,30.0,29.70,WNW,298,8.0,-999.0,66,-99.99,,,0.00,weatherlink.com 1.10,2013-03-26 17:51:00,
2013-03-26 14:06:00,41.3,28.0,29.70,NW,312,5.0,-999.0,60,-99.99,,,0.00,weatherlink.com 1.10,2013-03-26 18:06:00,
2013-03-26 14:21:00,42.4,28.0,29.70,NNW,340,6.0,-999.0,58,-99.99,,,0.00,weatherlink.com 1.10,2013-03-26 18:21:00,
2013-03-26 14:36:00,41.2,27.0,29.70,NW,317,1.0,-999.0,58,-99.99,,,0.00,weatherlink.com 1.10,2013-03-26 18:36:00,
2013-03-26 14:51:00,42.5,27.0,29.70,NW,323,7.0,-999.0,55,-99.99,,,0.00,weatherlink.com 1.10,2013-03-26 18:51:00,
2013-03-26 15:06:00,42.3,27.0,29.70,NNW,327,5.0,-999.0,55,-99.99,,,0.00,weatherlink.com 1.10,2013-03-26 19:06:00,
2013-03-26 15:21:00,42.1,27.0,29.70,NW,319,6.0,-999.0,55,-99.99,,,0.00,weatherlink.com 1.10,2013-03-26 19:21:00,
2013-03-26 15:36:00,42.5,27.0,29.70,West,262,4.0,-999.0,55,-99.99,,,0.00,weatherlink.com 1.10,2013-03-26 19:36:00,
2013-03-26 16:06:00,41.6,27.0,29.70,WNW,289,3.0,-999.0,57,-99.99,,,0.00,weatherlink.com 1.10,2013-03-26 20:06:00,
2013-03-26 16:21:00,42.7,26.0,29.70,WNW,298,3.0,-999.0,53,-99.99,,,0.00,weatherlink.com 1.10,2013-03-26 20:21:00,
2013-03-26 16:36:00,42.1,26.0,29.71,NNW,340,3.0,-999.0,53,-99.99,,,0.00,weatherlink.com 1.10,2013-03-26 20:36:00,
2013-03-26 16:51:00,41.8,27.0,29.71,NW,314,5.0,-999.0,55,-99.99,,,0.00,weatherlink.com 1.10,2013-03-26 20:51:00,
2013-03-26 17:06:00,42.8,26.0,29.71,NW,324,2.0,-999.0,52,-99.99,,,0.00,weatherlink.com 1.10,2013-03-26 21:06:00,
2013-03-26 17:21:00,42.7,26.0,29.72,NNW,334,3.0,-999.0,51,-99.99,,,0.00,weatherlink.com 1.10,2013-03-26 21:21:00,
2013-03-26 17:36:00,42.8,26.0,29.72,NW,317,9.0,-999.0,51,-99.99,,,0.00,weatherlink.com 1.10,2013-03-26 21:36:00,
2013-03-26 17:51:00,41.1,25.0,29.73,WNW,295,6.0,-999.0,54,-99.99,,,0.00,weatherlink.com 1.10,2013-03-26 21:51:00,
2013-03-26 18:06:00,40.2,25.0,29.74,NNW,342,3.0,-999.0,55,-99.99,,,0.00,weatherlink.com 1.10,2013-03-26 22:06:00,
2013-03-26 18:36:00,39.1,24.0,29.74,West,259,0.0,-999.0,55,-99.99,,,0.00,weatherlink.com 1.10,2013-03-26 22:36:00,
2013-03-26 18:51:00,38.6,24.0,29.75,NW,310,0.0,-999.0,57,-99.99,,,0.00,weatherlink.com 1.10,2013-03-26 22:51:00,
2013-03-26 19:06:00,38.0,25.0,29.75,NW,310,0.0,-999.0,61,-99.99,,,0.00,weatherlink.com 1.10,2013-03-26 23:06:00,
2013-03-26 19:21:00,36.5,26.0,29.75,NW,310,0.0,-999.0,65,-99.99,,,0.00,weatherlink.com 1.10,2013-03-26 23:21:00,
2013-03-26 19:37:00,34.8,25.0,29.76,NW,310,0.0,-999.0,67,-99.99,,,0.00,weatherlink.com 1.10,2013-03-26 23:37:00,
2013-03-26 19:51:00,33.4,25.0,29.77,NW,310,0.0,-999.0,71,-99.99,,,0.00,weatherlink.com 1.10,2013-03-26 23:51:00,
2013-03-26 20:06:00,32.1,25.0,29.77,NW,310,0.0,-999.0,74,-99.99,,,0.00,weatherlink.com 1.10,2013-03-27 00:06:00,
2013-03-26 20:21:00,31.3,24.0,29.77,NW,310,0.0,-999.0,75,-99.99,,,0.00,weatherlink.com 1.10,2013-03-27 00:21:00,
2013-03-26 20:37:00,30.5,24.0,29.78,NW,310,0.0,-999.0,76,-99.99,,,0.00,weatherlink.com 1.10,2013-03-27 00:37:00,
2013-03-26 20:52:00,29.7,24.0,29.78,NW,310,0.0,-999.0,78,-99.99,,,0.00,weatherlink.com 1.10,2013-03-27 00:52:00,
2013-03-26 21:07:00,29.2,23.0,29.78,NW,310,0.0,-999.0,79,-99.99,,,0.00,weatherlink.com 1.10,2013-03-27 01:07:00,
2013-03-26 21:22:00,28.8,24.0,29.79,NW,310,0.0,-999.0,81,-99.99,,,0.00,weatherlink.com 1.10,2013-03-27 01:22:00,
2013-03-26 21:37:00,28.2,23.0,29.80,NW,310,0.0,-999.0,81,-99.99,,,0.00,weatherlink.com 1.10,2013-03-27 01:37:00,
2013-03-26 21:52:00,27.8,23.0,29.80,NW,310,0.0,-999.0,81,-99.99,,,0.00,weatherlink.com 1.10,2013-03-27 01:52:00,
2013-03-26 22:07:00,27.4,23.0,29.80,NW,310,0.0,-999.0,83,-99.99,,,0.00,weatherlink.com 1.10,2013-03-27 02:07:00,
2013-03-26 22:22:00,27.2,23.0,29.80,NW,310,0.0,-999.0,83,-99.99,,,0.00,weatherlink.com 1.10,2013-03-27 02:22:00,
2013-03-26 22:37:00,26.8,22.0,29.81,NW,310,0.0,-999.0,83,-99.99,,,0.00,weatherlink.com 1.10,2013-03-27 02:37:00,
2013-03-26 22:52:00,26.5,23.0,29.81,NW,310,0.0,-999.0,85,-99.99,,,0.00,weatherlink.com 1.10,2013-03-27 02:52:00,
2013-03-26 23:07:00,26.3,22.0,29.81,NW,310,0.0,-999.0,85,-99.99,,,0.00,weatherlink.com 1.10,2013-03-27 03:07:00,
2013-03-26 23:22:00,26.1,22.0,29.81,NW,310,0.0,-999.0,85,-99.99,,,0.00,weatherlink.com 1.10,2013-03-27 03:22:00,
2013-03-26 23:37:00,25.9,22.0,29.81,NW,310,0.0,-999.0,85,-99.99,,,0.00,weatherlink.com 1.10,2013-03-27 03:37:00,
2013-03-26 23:52:00,25.7,22.0,29.81,NW,310,0.0,-999.0,85,-99.99,,,0.00,weatherlink.com 1.10,2013-03-27 03:52:00,